| time (UTC) | temp F | wind direction | speed knots | gust knots | rain 1hr in | rain 24hr in | rain mn in | humidity % | barometer mb |
| 20260507044606 | 43 | 360 | 3.5 | 7.0 | 0.00 | 0.00 | 0.00 | 56 | 1014.5 |
| 20260507043104 | 44 | 77 | 3.5 | 5.2 | 0.00 | 0.00 | 0.00 | 55 | 1014.6 |
| 20260507041600 | 44 | 76 | 3.5 | 7.0 | 0.00 | 0.00 | 0.00 | 55 | 1014.8 |
| 20260507040056 | 45 | 70 | 0.0 | 1.7 | 0.00 | 0.00 | 0.00 | 54 | 1015.0 |
| 20260507034608 | 46 | 67 | 3.5 | 4.3 | 0.00 | 0.00 | 0.00 | 52 | 1015.0 |
| 20260507033056 | 46 | 360 | 2.6 | 4.3 | 0.00 | 0.00 | 0.00 | 50 | 1015.1 |
| 20260507031554 | 46 | 5 | 1.7 | 3.5 | 0.00 | 0.00 | 0.00 | 50 | 1015.2 |
| 20260507030101 | 45 | 355 | 0.0 | 2.6 | 0.00 | 0.00 | 0.00 | 49 | 1015.3 |
| 20260507024557 | 46 | 333 | 0.0 | 0.0 | 0.00 | 0.00 | 0.00 | 47 | 1015.3 |
| 20260507023054 | 47 | 333 | 0.0 | 2.6 | 0.00 | 0.00 | 0.00 | 46 | 1015.3 |
| 20260507021556 | 48 | 333 | 1.7 | 2.6 | 0.00 | 0.00 | 0.00 | 45 | 1015.3 |
| 20260507020052 | 48 | 329 | 1.7 | 4.3 | 0.00 | 0.00 | 0.00 | 45 | 1015.3 |
| 20260507014554 | 48 | 300 | 1.7 | 2.6 | 0.00 | 0.00 | 0.00 | 44 | 1015.1 |
| 20260507013059 | 49 | 300 | 1.7 | 4.3 | 0.00 | 0.00 | 0.00 | 43 | 1015.1 |
| 20260507011553 | 51 | 302 | 4.3 | 10.4 | 0.00 | 0.00 | 0.00 | 40 | 1015.1 |
| 20260507010049 | 51 | 307 | 6.1 | 11.3 | 0.00 | 0.00 | 0.00 | 40 | 1015.0 |
| 20260507004548 | 52 | 313 | 7.0 | 13.0 | 0.00 | 0.00 | 0.00 | 39 | 1015.0 |
| 20260507003048 | 53 | 313 | 8.7 | 13.0 | 0.00 | 0.00 | 0.00 | 38 | 1015.0 |
| 20260507001548 | 53 | 325 | 5.2 | 11.3 | 0.00 | 0.00 | 0.00 | 38 | 1015.1 |
| 20260507000052 | 53 | 292 | 7.8 | 12.2 | 0.00 | 0.00 | 0.00 | 39 | 1015.2 |
| 20260506234550 | 53 | 300 | 6.1 | 11.3 | 0.00 | 0.00 | 0.00 | 39 | 1015.3 |
| 20260506233043 | 52 | 312 | 7.8 | 13.0 | 0.00 | 0.00 | 0.00 | 41 | 1015.4 |
| 20260506231545 | 52 | 360 | 9.6 | 13.9 | 0.00 | 0.00 | 0.00 | 41 | 1015.5 |
| 20260506230042 | 52 | 278 | 7.8 | 14.8 | 0.00 | 0.00 | 0.00 | 41 | 1015.6 |
| 20260506224556 | 52 | 315 | 8.7 | 13.0 | 0.00 | 0.00 | 0.00 | 42 | 1015.7 |
| 20260506223042 | 52 | 319 | 9.6 | 15.6 | 0.00 | 0.00 | 0.00 | 42 | 1015.8 |
| 20260506221540 | 52 | 275 | 9.6 | 16.5 | 0.00 | 0.00 | 0.00 | 42 | 1016.0 |
| 20260506220041 | 52 | 229 | 13.9 | 18.2 | 0.00 | 0.00 | 0.00 | 42 | 1016.1 |
| 20260506214546 | 52 | 288 | 13.9 | 20.9 | 0.00 | 0.00 | 0.00 | 42 | 1016.3 |
| 20260506213043 | 52 | 256 | 11.3 | 18.2 | 0.00 | 0.00 | 0.00 | 42 | 1016.3 |
| 20260506211536 | 52 | 360 | 12.2 | 18.2 | 0.00 | 0.00 | 0.00 | 42 | 1016.5 |
| 20260506210040 | 52 | 313 | 13.9 | 26.9 | 0.00 | 0.00 | 0.00 | 42 | 1016.7 |
| 20260506204535 | 52 | 279 | 11.3 | 23.5 | 0.00 | 0.00 | 0.00 | 42 | 1016.9 |
| 20260506203034 | 52 | 284 | 17.4 | 21.7 | 0.00 | 0.00 | 0.00 | 43 | 1017.1 |
| 20260506201532 | 51 | 298 | 10.4 | 19.1 | 0.00 | 0.00 | 0.00 | 44 | 1017.0 |
| 20260506200032 | 50 | 360 | 8.7 | 20.0 | 0.00 | 0.00 | 0.00 | 45 | 1017.2 |
| 20260506194527 | 50 | 305 | 12.2 | 17.4 | 0.00 | 0.00 | 0.00 | 45 | 1017.5 |
| 20260506193026 | 50 | 309 | 11.3 | 17.4 | 0.00 | 0.00 | 0.00 | 46 | 1017.6 |
| 20260506191525 | 49 | 279 | 9.6 | 17.4 | 0.00 | 0.00 | 0.00 | 46 | 1017.7 |
| 20260506190022 | 48 | 360 | 9.6 | 18.2 | 0.00 | 0.00 | 0.00 | 47 | 1017.8 |
| 20260506184526 | 48 | 311 | 13.9 | 19.1 | 0.00 | 0.00 | 0.00 | 47 | 1017.9 |
| 20260506183021 | 48 | 298 | 14.8 | 22.6 | 0.00 | 0.00 | 0.00 | 47 | 1017.9 |
| 20260506181519 | 47 | 340 | 10.4 | 22.6 | 0.00 | 0.00 | 0.00 | 48 | 1018.1 |
| 20260506180024 | 48 | 330 | 14.8 | 23.5 | 0.00 | 0.00 | 0.00 | 47 | 1018.1 |
| 20260506174516 | 46 | 300 | 11.3 | 22.6 | 0.00 | 0.00 | 0.00 | 49 | 1018.3 |
| 20260506173014 | 45 | 311 | 11.3 | 18.2 | 0.00 | 0.00 | 0.00 | 49 | 1018.4 |
| 20260506171514 | 46 | 294 | 15.6 | 19.1 | 0.00 | 0.00 | 0.00 | 48 | 1018.4 |
| 20260506170015 | 46 | 271 | 14.8 | 20.9 | 0.00 | 0.00 | 0.00 | 49 | 1018.5 |
| 20260506164515 | 45 | 304 | 13.0 | 21.7 | 0.00 | 0.00 | 0.00 | 51 | 1018.5 |
| 20260506163011 | 44 | 286 | 13.9 | 22.6 | 0.00 | 0.00 | 0.00 | 52 | 1018.6 |
| 20260506161609 | 45 | 292 | 13.9 | 18.2 | 0.00 | 0.00 | 0.00 | 51 | 1018.6 |
| 20260506160008 | 45 | 316 | 11.3 | 21.7 | 0.00 | 0.00 | 0.00 | 52 | 1018.5 |
| 20260506154506 | 45 | 303 | 13.0 | 19.1 | 0.00 | 0.00 | 0.00 | 52 | 1018.4 |
| 20260506153003 | 44 | 360 | 10.4 | 16.5 | 0.00 | 0.00 | 0.00 | 53 | 1018.4 |
| 20260506151600 | 44 | 319 | 11.3 | 17.4 | 0.00 | 0.00 | 0.00 | 56 | 1018.6 |
| 20260506150100 | 43 | 288 | 8.7 | 13.9 | 0.00 | 0.00 | 0.00 | 57 | 1018.6 |
| 20260506144604 | 43 | 307 | 9.6 | 14.8 | 0.00 | 0.00 | 0.00 | 57 | 1018.5 |
| 20260506143054 | 42 | 317 | 7.8 | 15.6 | 0.00 | 0.00 | 0.00 | 61 | 1018.5 |
| 20260506141550 | 42 | 360 | 8.7 | 14.8 | 0.00 | 0.00 | 0.00 | 62 | 1018.5 |
| 20260506140057 | 41 | 313 | 4.3 | 11.3 | 0.00 | 0.00 | 0.00 | 64 | 1018.4 |
| 20260506134542 | 40 | 302 | 1.7 | 7.8 | 0.00 | 0.00 | 0.00 | 68 | 1018.3 |
| 20260506133045 | 38 | 332 | 0.9 | 5.2 | 0.00 | 0.00 | 0.00 | 70 | 1018.4 |
| 20260506131537 | 38 | 298 | 3.5 | 7.8 | 0.00 | 0.00 | 0.00 | 72 | 1018.4 |
| 20260506130032 | 36 | 277 | 3.5 | 7.0 | 0.00 | 0.00 | 0.00 | 75 | 1018.3 |
| 20260506124527 | 36 | 280 | 4.3 | 6.1 | 0.00 | 0.00 | 0.00 | 76 | 1018.2 |
| 20260506123025 | 35 | 240 | 2.6 | 4.3 | 0.00 | 0.00 | 0.00 | 77 | 1017.9 |
| 20260506121522 | 35 | 274 | 0.9 | 4.3 | 0.00 | 0.00 | 0.00 | 76 | 1017.8 |
| 20260506120033 | 35 | 302 | 2.6 | 7.8 | 0.00 | 0.00 | 0.00 | 77 | 1017.6 |
| 20260506114517 | 34 | 302 | 2.6 | 4.3 | 0.00 | 0.00 | 0.00 | 77 | 1017.4 |
| 20260506113015 | 34 | 306 | 0.9 | 2.6 | 0.00 | 0.00 | 0.00 | 77 | 1017.1 |
| 20260506111513 | 34 | 304 | 2.6 | 4.3 | 0.00 | 0.00 | 0.00 | 76 | 1017.0 |
| 20260506110012 | 33 | 292 | 3.5 | 4.3 | 0.00 | 0.00 | 0.00 | 77 | 1017.0 |
| 20260506104511 | 33 | 308 | 1.7 | 5.2 | 0.00 | 0.00 | 0.00 | 77 | 1016.9 |
| 20260506103010 | 33 | 290 | 1.7 | 4.3 | 0.00 | 0.00 | 0.00 | 77 | 1016.8 |
| 20260506101509 | 32 | 298 | 2.6 | 6.1 | 0.00 | 0.00 | 0.00 | 77 | 1016.7 |
| 20260506100007 | 32 | 296 | 1.7 | 3.5 | 0.00 | 0.00 | 0.00 | 78 | 1016.4 |
| 20260506094506 | 30 | 297 | 1.7 | 3.5 | 0.00 | 0.00 | 0.00 | 78 | 1016.5 |
| 20260506093005 | 32 | 360 | 4.3 | 5.2 | 0.00 | 0.00 | 0.00 | 74 | 1016.5 |
| 20260506091503 | 33 | 338 | 0.0 | 0.0 | 0.00 | 0.00 | 0.00 | 74 | 1016.1 |
| 20260506090004 | 31 | 338 | 0.0 | 0.0 | 0.00 | 0.00 | 0.00 | 75 | 1016.0 |
| 20260506084502 | 32 | 338 | 0.0 | 1.7 | 0.00 | 0.00 | 0.00 | 74 | 1016.0 |
| 20260506083000 | 31 | 331 | 1.7 | 3.5 | 0.00 | 0.00 | 0.00 | 77 | 1016.0 |
| 20260506081600 | 31 | 317 | 3.5 | 5.2 | 0.00 | 0.00 | 0.00 | 74 | 1016.3 |
| 20260506073051 | 32 | 323 | 2.6 | 3.5 | 0.00 | 0.00 | 0.00 | 72 | 1015.6 |
| 20260506071547 | 33 | 332 | 1.7 | 2.6 | 0.00 | 0.00 | 0.00 | 71 | 1015.6 |
| 20260506061541 | 35 | 343 | 1.7 | 3.5 | 0.00 | 0.00 | 0.00 | 69 | 1015.7 |